TimeCST,TemperatureF,Dew PointF,Humidity,Sea Level PressureIn,VisibilityMPH,Wind Direction,Wind SpeedMPH,Gust SpeedMPH,PrecipitationIn,Events,Conditions,WindDirDegrees,DateUTC
12:15 AM,44.6,44.6,100,29.84,4.0,North,4.6,-,N/A,,Overcast,10,2012-12-09 06:15:00
12:35 AM,44.6,44.6,100,29.83,3.0,North,5.8,-,N/A,,Overcast,10,2012-12-09 06:35:00
12:55 AM,44.6,44.6,100,29.83,3.0,NNE,4.6,-,N/A,,Overcast,30,2012-12-09 06:55:00
1:15 AM,44.6,44.6,100,29.82,3.0,NNE,4.6,-,N/A,,Overcast,20,2012-12-09 07:15:00
1:35 AM,44.6,44.6,100,29.81,3.0,NNE,4.6,-,N/A,,Overcast,20,2012-12-09 07:35:00
1:55 AM,44.6,44.6,100,29.82,3.0,NNE,3.5,-,N/A,,Overcast,20,2012-12-09 07:55:00
2:15 AM,44.6,44.6,100,29.82,2.5,North,6.9,-,N/A,,Overcast,360,2012-12-09 08:15:00
2:35 AM,44.6,44.6,100,29.81,3.0,North,9.2,-,N/A,,Overcast,10,2012-12-09 08:35:00
2:55 AM,44.6,44.6,100,29.81,3.0,NNE,5.8,-,N/A,,Overcast,20,2012-12-09 08:55:00
3:15 AM,44.6,44.6,100,29.80,3.0,NNE,5.8,-,N/A,,Overcast,20,2012-12-09 09:15:00
3:35 AM,44.6,44.6,100,29.80,3.0,North,5.8,-,N/A,,Overcast,10,2012-12-09 09:35:00
3:55 AM,44.6,44.6,100,29.80,3.0,North,9.2,-,N/A,,Overcast,360,2012-12-09 09:55:00
4:15 AM,44.6,42.8,93,29.80,3.0,North,8.1,-,N/A,,Overcast,10,2012-12-09 10:15:00
4:35 AM,44.6,42.8,93,29.81,3.0,North,6.9,-,N/A,,Overcast,350,2012-12-09 10:35:00
4:55 AM,44.6,42.8,93,29.81,4.0,North,6.9,-,N/A,,Overcast,360,2012-12-09 10:55:00
5:15 AM,44.6,42.8,93,29.81,4.0,North,6.9,-,N/A,,Overcast,360,2012-12-09 11:15:00
5:35 AM,44.6,42.8,93,29.80,4.0,North,9.2,-,N/A,,Overcast,360,2012-12-09 11:35:00
6:15 AM,44.6,42.8,93,29.82,4.0,North,6.9,-,N/A,,Overcast,350,2012-12-09 12:15:00
6:35 AM,44.6,42.8,93,29.83,4.0,North,10.4,-,N/A,,Overcast,350,2012-12-09 12:35:00
6:55 AM,44.6,42.8,93,29.85,4.0,NNW,10.4,-,N/A,,Overcast,340,2012-12-09 12:55:00
7:15 AM,44.6,42.8,93,29.87,4.0,NNW,9.2,-,N/A,,Overcast,340,2012-12-09 13:15:00
7:35 AM,44.6,42.8,93,29.87,4.0,North,8.1,-,N/A,,Overcast,350,2012-12-09 13:35:00
7:55 AM,44.6,42.8,93,29.87,4.0,North,6.9,-,N/A,,Overcast,350,2012-12-09 13:55:00
8:15 AM,44.6,42.8,93,29.88,3.0,North,11.5,-,N/A,,Overcast,360,2012-12-09 14:15:00
8:35 AM,44.6,41.0,87,29.88,4.0,North,13.8,-,N/A,,Overcast,350,2012-12-09 14:35:00
8:55 AM,44.6,41.0,87,29.89,4.0,North,13.8,-,N/A,,Overcast,360,2012-12-09 14:55:00
9:15 AM,44.6,41.0,87,29.90,5.0,North,15.0,-,N/A,,Overcast,360,2012-12-09 15:15:00
9:35 AM,44.6,41.0,87,29.90,5.0,North,13.8,-,N/A,,Overcast,360,2012-12-09 15:35:00
9:55 AM,44.6,41.0,87,29.90,7.0,North,18.4,23.0,N/A,,Overcast,360,2012-12-09 15:55:00
10:15 AM,44.6,41.0,87,29.91,7.0,North,15.0,23.0,N/A,,Overcast,360,2012-12-09 16:15:00
10:35 AM,46.4,41.0,81,29.92,7.0,North,16.1,19.6,N/A,,Overcast,360,2012-12-09 16:35:00
10:55 AM,46.4,39.2,76,29.92,7.0,North,13.8,19.6,N/A,,Overcast,360,2012-12-09 16:55:00
11:15 AM,46.4,41.0,81,29.92,7.0,North,12.7,-,N/A,,Overcast,350,2012-12-09 17:15:00
11:35 AM,46.4,39.2,76,29.92,10.0,North,12.7,-,N/A,,Mostly Cloudy,350,2012-12-09 17:35:00
11:55 AM,46.4,39.2,76,29.92,7.0,North,17.3,-,N/A,,Mostly Cloudy,350,2012-12-09 17:55:00
12:15 PM,46.4,39.2,76,29.92,10.0,North,15.0,-,N/A,,Mostly Cloudy,350,2012-12-09 18:15:00
12:35 PM,46.4,37.4,71,29.92,10.0,NNW,17.3,-,N/A,,Overcast,340,2012-12-09 18:35:00
12:55 PM,44.6,37.4,76,29.93,10.0,NNW,18.4,21.9,N/A,,Overcast,330,2012-12-09 18:55:00
1:15 PM,44.6,33.8,66,29.93,10.0,NNW,17.3,23.0,N/A,,Overcast,330,2012-12-09 19:15:00
1:35 PM,44.6,33.8,66,29.93,10.0,NNW,16.1,21.9,N/A,,Overcast,340,2012-12-09 19:35:00
1:55 PM,46.4,33.8,62,29.93,10.0,NNW,15.0,-,N/A,,Overcast,330,2012-12-09 19:55:00
2:15 PM,46.4,32.0,57,29.93,10.0,NNW,19.6,-,N/A,,Overcast,340,2012-12-09 20:15:00
2:35 PM,44.6,30.2,57,29.94,10.0,NNW,23.0,27.6,N/A,,Overcast,330,2012-12-09 20:35:00
2:55 PM,42.8,28.4,57,29.95,10.0,NNW,20.7,26.5,N/A,,Mostly Cloudy,340,2012-12-09 20:55:00
3:15 PM,42.8,26.6,53,29.96,10.0,NNW,20.7,26.5,N/A,,Mostly Cloudy,340,2012-12-09 21:15:00
3:35 PM,41.0,23.0,49,29.98,10.0,NNW,20.7,-,N/A,,Scattered Clouds,330,2012-12-09 21:35:00
3:55 PM,41.0,23.0,49,29.99,10.0,NNW,18.4,24.2,N/A,,Clear,340,2012-12-09 21:55:00
4:15 PM,41.0,23.0,49,30.00,10.0,NNW,19.6,24.2,N/A,,Clear,330,2012-12-09 22:15:00
4:35 PM,37.4,21.2,52,30.01,10.0,NNW,18.4,26.5,N/A,,Clear,340,2012-12-09 22:35:00
4:55 PM,35.6,21.2,56,30.02,10.0,NNW,18.4,-,N/A,,Clear,340,2012-12-09 22:55:00
5:15 PM,35.6,19.4,52,30.03,10.0,NNW,13.8,-,N/A,,Clear,330,2012-12-09 23:15:00
5:35 PM,33.8,17.6,52,30.03,10.0,NNW,20.7,-,N/A,,Clear,340,2012-12-09 23:35:00
5:55 PM,33.8,19.4,56,30.04,10.0,NNW,15.0,20.7,N/A,,Clear,330,2012-12-09 23:55:00
6:15 PM,32.0,17.6,55,30.05,10.0,NNW,17.3,25.3,N/A,,Clear,340,2012-12-10 00:15:00
6:35 PM,32.0,17.6,55,30.07,10.0,NNW,12.7,-,N/A,,Clear,330,2012-12-10 00:35:00
6:55 PM,32.0,17.6,55,30.07,10.0,NNW,16.1,20.7,N/A,,Clear,330,2012-12-10 00:55:00
7:15 PM,30.2,15.8,55,30.07,10.0,NNW,17.3,25.3,N/A,,Clear,340,2012-12-10 01:15:00
7:35 PM,30.2,14.0,51,30.08,10.0,NNW,20.7,24.2,N/A,,Clear,330,2012-12-10 01:35:00
7:55 PM,30.2,14.0,51,30.08,10.0,NNW,17.3,23.0,N/A,,Clear,330,2012-12-10 01:55:00
8:15 PM,30.2,14.0,51,30.08,10.0,NNW,16.1,25.3,N/A,,Clear,340,2012-12-10 02:15:00
8:35 PM,30.2,14.0,51,30.07,10.0,NNW,17.3,25.3,N/A,,Clear,340,2012-12-10 02:35:00
8:55 PM,30.2,14.0,51,30.08,10.0,North,21.9,26.5,N/A,,Clear,350,2012-12-10 02:55:00
9:15 PM,30.2,12.2,47,30.10,10.0,NNW,18.4,27.6,N/A,,Clear,330,2012-12-10 03:15:00
9:35 PM,28.4,12.2,51,30.11,10.0,NNW,16.1,24.2,N/A,,Clear,330,2012-12-10 03:35:00
9:55 PM,28.4,12.2,51,30.12,10.0,NNW,18.4,27.6,N/A,,Clear,330,2012-12-10 03:55:00
10:15 PM,28.4,14.0,55,30.12,10.0,NNW,19.6,26.5,N/A,,Clear,340,2012-12-10 04:15:00
10:35 PM,28.4,12.2,51,30.12,10.0,NNW,23.0,28.8,N/A,,Clear,340,2012-12-10 04:35:00
10:55 PM,28.4,12.2,51,30.12,10.0,NNW,23.0,27.6,N/A,,Scattered Clouds,340,2012-12-10 04:55:00
11:15 PM,28.4,14.0,55,30.12,10.0,North,18.4,24.2,N/A,,Clear,350,2012-12-10 05:15:00
11:35 PM,28.4,12.2,51,30.12,10.0,NNW,20.7,28.8,N/A,,Clear,340,2012-12-10 05:35:00
11:55 PM,28.4,12.2,51,30.12,10.0,NNW,23.0,27.6,N/A,,Mostly Cloudy,340,2012-12-10 05:55:00